Location: Corralito
(14.1667°N, 87.1833°W)
Time: 21:13:59
(UTC+00:00)

STARLINK-1340 - Pass Details

Date: 07 June 2020
Orbit: 379 x 380 km, 53.0° (Epoch: 04 July)

Event Time Altitude Azimuth Distance (km) Brightness Sun altitude
Rises 01:07:11 0° 213° (SSW) 2,231 6.8 -12.1°
Reaches altitude 10° 01:09:14 10° 212° (SSW) 1,381 5.7 -12.5°
Maximum altitude 01:12:19 80° 125° (SE) 385 2.7 -13.2°
Drops below altitude 10° 01:15:24 10° 38° (NE) 1,383 5.6 -13.8°
Sets 01:17:26 0° 37° (NE) 2,235 6.6 -14.3°
